Home > Time Zones > World Clock > Weather > Peru > Callao > Past weeks

Flag for Peru Weather past 2 weeks in Callao, Callao, Peru

Now
77 °F

Fog.


Feels Like: 79 °F
Forecast: N/A
Wind: 14 mph from South

Location: Lima-Callao / Aerop. Internacional Jorgechavez

Current Time: Mar 27, 2015 at 3:55:57 PM

Latest Report: Mar 27, 2015 at 3:00 PM


Visibility: N/A

Pressure: 29.86 "Hg

Humidity: 74%

Dew point: 68 °F

Location of CallaoLocation

Historic Weather in Callao — Graph

°F

Callao temperature yesterday

Maximum temperature yesterday: 81 °F (at 10:00 AM)
Minimum temperature yesterday: 72 °F (at 2:00 AM)
Average temperature yesterday: 76 °F

Past Weeks' High & Low Weather Summary

 TemperatureHumidityPressure
High90 °F (Mar 21, 3:00 PM)94% (Mar 12, 11:00 PM)30.01 "Hg (Mar 12, 11:00 PM)
Low68 °F (Mar 13, 2:00 AM)49% (Mar 18, 1:00 PM)29.74 "Hg (Mar 12, 4:00 PM)
Average77 °F78%29.89 "Hg
* Reported Mar 12 3:00 PM — Mar 27 3:00 PM, Callao, Weather by CustomWeather, © 2015

Note: Actual official high and low records may vary slightly from our data, if they occured in-between our weather recording intervals... More about our weather records

Advertising

Callao weather history for previous 24 hours

 ConditionsComfort  
Time TempWeatherWind HumidityBarometerVisibility
3:00 PM
Fri, Mar 27
77 °FFog.14 mph74%29.86 "HgN/A
2:00 PM81 °FSunny.15 mph66%29.86 "Hg10 mi
1:00 PM79 °FSunny.14 mph70%29.86 "Hg10 mi
12:00 PM77 °FSunny.14 mph74%29.89 "Hg10 mi
11:00 AM77 °FPassing clouds.12 mph74%29.92 "HgN/A
10:00 AM75 °FSunny.12 mph78%29.92 "Hg10 mi
9:00 AM72 °FPassing clouds.8 mph88%29.92 "HgN/A
8:00 AM70 °FBroken clouds.7 mph94%29.92 "Hg4 mi
7:00 AM70 °FFog.8 mph94%29.92 "Hg2 mi
6:00 AM70 °FPassing clouds.8 mph94%29.92 "Hg4 mi
5:00 AM72 °FPassing clouds.6 mph88%29.89 "HgN/A
4:00 AM70 °FClear.9 mph94%29.89 "Hg10 mi
3:00 AM72 °FClear.12 mph88%29.89 "Hg10 mi
2:00 AM73 °FClear.9 mph83%29.92 "Hg10 mi
1:00 AM73 °FClear.17 mph83%29.92 "Hg10 mi
12:00 AM73 °FClear.15 mph83%29.92 "Hg10 mi
11:00 PM
Thu, Mar 26
75 °FClear.20 mph74%29.92 "Hg10 mi
10:00 PM75 °FClear.21 mph78%29.92 "Hg10 mi
9:00 PM75 °FClear.17 mph78%29.92 "Hg10 mi
8:00 PM73 °FClear.15 mph83%29.92 "Hg10 mi
7:00 PM75 °FPassing clouds.13 mph78%29.89 "HgN/A
6:00 PM77 °FSunny.14 mph74%29.86 "Hg10 mi
5:00 PM77 °FSunny.15 mph74%29.86 "Hg10 mi
4:00 PM81 °FSunny.13 mph66%29.86 "Hg10 mi
3:00 PM81 °FSunny.15 mph62%29.86 "Hg10 mi
Weather by CustomWeather, © 2015

See weather overviewHow to use our weather pages